| time (UTC) | temp F | wind direction | speed MPH | gust MPH | rain 1hr in | rain 24hr in | rain mn in | humidity % | barometer mb |
| 20260902235018 | 97 | 127 | 1.0 | 2.0 | 0.00 | 0.00 | 0.00 | 43 | 1013.2 |
| 20260902234449 | 97 | 131 | 1.0 | 2.0 | 0.00 | 0.00 | 0.00 | 43 | 1013.3 |
| 20260902233922 | 97 | 132 | 1.0 | 3.0 | 0.00 | 0.00 | 0.00 | 43 | 1013.3 |
| 20260902233422 | 98 | 131 | 1.0 | 4.0 | 0.00 | 0.00 | 0.00 | 41 | 1013.3 |
| 20260902232858 | 99 | 132 | 1.0 | 4.0 | 0.00 | 0.00 | 0.00 | 41 | 1013.4 |
| 20260902232330 | 99 | 131 | 2.0 | 4.0 | 0.00 | 0.00 | 0.00 | 41 | 1013.4 |
| 20260902231828 | 99 | 134 | 1.0 | 4.0 | 0.00 | 0.00 | 0.00 | 40 | 1013.5 |
| 20260902231328 | 99 | 138 | 1.0 | 4.0 | 0.00 | 0.00 | 0.00 | 40 | 1013.4 |
| 20260902230826 | 99 | 131 | 1.0 | 4.0 | 0.00 | 0.00 | 0.00 | 40 | 1013.4 |
| 20260902230328 | 99 | 173 | 1.0 | 4.0 | 0.00 | 0.00 | 0.00 | 39 | 1013.3 |
| 20260902225804 | 99 | 203 | 1.0 | 4.0 | 0.00 | 0.00 | 0.00 | 40 | 1013.3 |
| 20260902225238 | 99 | 134 | 1.0 | 3.0 | 0.00 | 0.00 | 0.00 | 40 | 1013.4 |
| 20260902224712 | 98 | 209 | 1.0 | 3.0 | 0.00 | 0.00 | 0.00 | 40 | 1013.4 |
| 20260902224145 | 98 | 131 | 1.0 | 3.0 | 0.00 | 0.00 | 0.00 | 41 | 1013.5 |
| 20260902223619 | 97 | 132 | 0.0 | 2.0 | 0.00 | 0.00 | 0.00 | 41 | 1013.5 |
| 20260902223052 | 97 | 136 | 0.0 | 2.0 | 0.00 | 0.00 | 0.00 | 42 | 1013.6 |
| 20260902222548 | 97 | 143 | 0.0 | 2.0 | 0.00 | 0.00 | 0.00 | 42 | 1013.6 |
| 20260902222046 | 97 | 146 | 1.0 | 4.0 | 0.00 | 0.00 | 0.00 | 42 | 1013.7 |
| 20260902222023 | 97 | 139 | 1.0 | 4.0 | 0.00 | 0.00 | 0.00 | 42 | 1013.6 |
| 20260902221040 | 97 | 132 | 0.0 | 2.0 | 0.00 | 0.00 | 0.00 | 43 | 1013.7 |
| 20260902220543 | 97 | 132 | 0.0 | 2.0 | 0.00 | 0.00 | 0.00 | 42 | 1013.8 |
| 20260902220024 | 98 | 207 | 0.0 | 1.0 | 0.00 | 0.00 | 0.00 | 41 | 1013.8 |
| 20260902215453 | 98 | 214 | 0.0 | 2.0 | 0.00 | 0.00 | 0.00 | 41 | 1013.9 |
| 20260902214929 | 98 | 181 | 1.0 | 3.0 | 0.00 | 0.00 | 0.00 | 41 | 1014.0 |
| 20260902214831 | 99 | 195 | 0.0 | 3.0 | 0.00 | 0.00 | 0.00 | 41 | 1013.9 |
| 20260902213833 | 99 | 154 | 1.0 | 3.0 | 0.00 | 0.00 | 0.00 | 40 | 1014.0 |
| 20260902213308 | 100 | 196 | 2.0 | 6.0 | 0.00 | 0.00 | 0.00 | 40 | 1014.1 |
| 20260902212740 | 99 | 193 | 2.0 | 6.0 | 0.00 | 0.00 | 0.00 | 41 | 1014.0 |
| 20260902212718 | 99 | 11 | 3.0 | 7.0 | 0.00 | 0.00 | 0.00 | 39 | 1014.1 |
| 20260902211729 | 99 | 111 | 2.0 | 7.0 | 0.00 | 0.00 | 0.00 | 42 | 1014.1 |
| 20260902211712 | 101 | 67 | 1.0 | 4.0 | 0.00 | 0.00 | 0.00 | 40 | 1014.2 |
| 20260902210700 | 101 | 92 | 1.0 | 3.0 | 0.00 | 0.00 | 0.00 | 42 | 1014.2 |
| 20260902210136 | 101 | 60 | 1.0 | 4.0 | 0.00 | 0.00 | 0.00 | 41 | 1014.3 |
| 20260902205633 | 100 | 190 | 1.0 | 7.0 | 0.00 | 0.00 | 0.00 | 39 | 1014.3 |
| 20260902205557 | 100 | 33 | 2.0 | 6.0 | 0.00 | 0.00 | 0.00 | 40 | 1014.6 |
| 20260902204540 | 100 | 355 | 2.0 | 6.0 | 0.00 | 0.00 | 0.00 | 39 | 1014.5 |
| 20260902204037 | 101 | 60 | 1.0 | 5.0 | 0.00 | 0.00 | 0.00 | 41 | 1014.5 |
| 20260902203513 | 100 | 143 | 1.0 | 7.0 | 0.00 | 0.00 | 0.00 | 40 | 1014.7 |
| 20260902202944 | 100 | 214 | 2.0 | 7.0 | 0.00 | 0.00 | 0.00 | 41 | 1014.7 |
| 20260902202443 | 100 | 130 | 1.0 | 5.0 | 0.00 | 0.00 | 0.00 | 40 | 1014.7 |
| 20260902201934 | 100 | 94 | 1.0 | 5.0 | 0.00 | 0.00 | 0.00 | 42 | 1014.7 |
| 20260902201433 | 101 | 115 | 1.0 | 2.0 | 0.00 | 0.00 | 0.00 | 40 | 1014.9 |
| 20260902200907 | 102 | 131 | 1.0 | 4.0 | 0.00 | 0.00 | 0.00 | 38 | 1014.9 |
| 20260902200404 | 102 | 131 | 1.0 | 5.0 | 0.00 | 0.00 | 0.00 | 39 | 1015.0 |
| 20260902195903 | 102 | 126 | 1.0 | 5.0 | 0.00 | 0.00 | 0.00 | 39 | 1015.1 |
| 20260902195358 | 102 | 1 | 1.0 | 5.0 | 0.00 | 0.00 | 0.00 | 40 | 1015.2 |
| 20260902194857 | 101 | 76 | 1.0 | 8.0 | 0.00 | 0.00 | 0.00 | 38 | 1015.2 |
| 20260902194330 | 101 | 129 | 2.0 | 8.0 | 0.00 | 0.00 | 0.00 | 38 | 1015.4 |
| 20260902193805 | 102 | 118 | 1.0 | 4.0 | 0.00 | 0.00 | 0.00 | 39 | 1015.3 |
| 20260902193247 | 102 | 266 | 1.0 | 4.0 | 0.00 | 0.00 | 0.00 | 39 | 1015.4 |
| 20260902192746 | 102 | 192 | 1.0 | 4.0 | 0.00 | 0.00 | 0.00 | 39 | 1015.4 |
| 20260902192243 | 102 | 203 | 1.0 | 3.0 | 0.00 | 0.00 | 0.00 | 39 | 1015.5 |
| 20260902192223 | 102 | 207 | 1.0 | 3.0 | 0.00 | 0.00 | 0.00 | 41 | 1015.5 |
| 20260902191218 | 101 | 130 | 0.0 | 4.0 | 0.00 | 0.00 | 0.00 | 41 | 1015.6 |
| 20260902191204 | 100 | 201 | 1.0 | 4.0 | 0.00 | 0.00 | 0.00 | 44 | 1015.7 |
| 20260902190657 | 101 | 112 | 1.0 | 4.0 | 0.00 | 0.00 | 0.00 | 40 | 1015.9 |
| 20260902185713 | 102 | 256 | 1.0 | 4.0 | 0.00 | 0.00 | 0.00 | 42 | 1015.9 |
| 20260902185210 | 101 | 193 | 1.0 | 8.0 | 0.00 | 0.00 | 0.00 | 44 | 1016.1 |
| 20260902184706 | 100 | 150 | 1.0 | 8.0 | 0.00 | 0.00 | 0.00 | 43 | 1016.1 |
| 20260902184142 | 100 | 148 | 0.0 | 3.0 | 0.00 | 0.00 | 0.00 | 45 | 1016.2 |
| 20260902183630 | 100 | 200 | 1.0 | 6.0 | 0.00 | 0.00 | 0.00 | 46 | 1016.2 |
| 20260902183133 | 100 | 7 | 1.0 | 6.0 | 0.00 | 0.00 | 0.00 | 42 | 1016.4 |
| 20260902182609 | 102 | 25 | 1.0 | 4.0 | 0.00 | 0.00 | 0.00 | 41 | 1016.4 |
| 20260902182109 | 101 | 193 | 1.0 | 3.0 | 0.00 | 0.00 | 0.00 | 44 | 1016.6 |
| 20260902181604 | 101 | 133 | 1.0 | 3.0 | 0.00 | 0.00 | 0.00 | 43 | 1016.7 |
| 20260902181048 | 100 | 232 | 1.0 | 4.0 | 0.00 | 0.00 | 0.00 | 43 | 1016.8 |
| 20260902180548 | 100 | 217 | 1.0 | 5.0 | 0.00 | 0.00 | 0.00 | 45 | 1016.8 |
| 20260902180510 | 100 | 217 | 1.0 | 5.0 | 0.00 | 0.00 | 0.00 | 45 | 1016.9 |
| 20260902175518 | 99 | 206 | 2.0 | 5.0 | 0.00 | 0.00 | 0.00 | 46 | 1017.1 |
| 20260902175011 | 100 | 93 | 1.0 | 5.0 | 0.00 | 0.00 | 0.00 | 44 | 1017.1 |
| 20260902174506 | 100 | 132 | 1.0 | 8.0 | 0.00 | 0.00 | 0.00 | 45 | 1017.1 |
| 20260902173941 | 99 | 286 | 2.0 | 9.0 | 0.00 | 0.00 | 0.00 | 46 | 1017.4 |
| 20260902173430 | 99 | 217 | 2.0 | 9.0 | 0.00 | 0.00 | 0.00 | 46 | 1017.4 |
| 20260902172856 | 100 | 152 | 1.0 | 3.0 | 0.00 | 0.00 | 0.00 | 46 | 1017.5 |
| 20260902172331 | 100 | 252 | 1.0 | 3.0 | 0.00 | 0.00 | 0.00 | 45 | 1017.5 |
| 20260902171829 | 100 | 176 | 1.0 | 3.0 | 0.00 | 0.00 | 0.00 | 46 | 1017.6 |
| 20260902171327 | 99 | 208 | 1.0 | 5.0 | 0.00 | 0.00 | 0.00 | 47 | 1017.7 |
| 20260902170801 | 98 | 197 | 1.0 | 5.0 | 0.00 | 0.00 | 0.00 | 47 | 1017.7 |
| 20260902170232 | 99 | 158 | 1.0 | 6.0 | 0.00 | 0.00 | 0.00 | 48 | 1017.7 |
| 20260902165704 | 99 | 39 | 1.0 | 6.0 | 0.00 | 0.00 | 0.00 | 47 | 1017.7 |
| 20260902165614 | 99 | 237 | 1.0 | 4.0 | 0.00 | 0.00 | 0.00 | 47 | 1017.9 |
| 20260902164609 | 98 | 132 | 1.0 | 3.0 | 0.00 | 0.00 | 0.00 | 48 | 1017.9 |
| 20260902164549 | 98 | 236 | 1.0 | 3.0 | 0.00 | 0.00 | 0.00 | 47 | 1017.9 |
| 20260902163538 | 98 | 165 | 1.0 | 8.0 | 0.00 | 0.00 | 0.00 | 48 | 1018.0 |
| 20260902163018 | 98 | 139 | 1.0 | 8.0 | 0.00 | 0.00 | 0.00 | 48 | 1018.1 |
| 20260902162518 | 97 | 179 | 1.0 | 6.0 | 0.00 | 0.00 | 0.00 | 50 | 1018.1 |
| 20260902162018 | 97 | 191 | 1.0 | 6.0 | 0.00 | 0.00 | 0.00 | 50 | 1018.2 |
| 20260902161516 | 97 | 153 | 1.0 | 4.0 | 0.00 | 0.00 | 0.00 | 48 | 1018.1 |
| 20260902161459 | 97 | 156 | 1.0 | 4.0 | 0.00 | 0.00 | 0.00 | 50 | 1018.2 |
| 20260902160451 | 97 | 197 | 1.0 | 4.0 | 0.00 | 0.00 | 0.00 | 51 | 1018.2 |
| 20260902160424 | 97 | 203 | 1.0 | 4.0 | 0.00 | 0.00 | 0.00 | 51 | 1018.3 |
| 20260902155442 | 97 | 263 | 1.0 | 3.0 | 0.00 | 0.00 | 0.00 | 51 | 1018.3 |
| 20260902155425 | 96 | 212 | 1.0 | 3.0 | 0.00 | 0.00 | 0.00 | 52 | 1018.3 |
| 20260902154916 | 96 | 169 | 1.0 | 3.0 | 0.00 | 0.00 | 0.00 | 51 | 1018.3 |
| 20260902154421 | 96 | 168 | 1.0 | 4.0 | 0.00 | 0.00 | 0.00 | 51 | 1018.3 |
| 20260902153407 | 96 | 149 | 1.0 | 4.0 | 0.00 | 0.00 | 0.00 | 51 | 1018.3 |
| 20260902152841 | 96 | 207 | 1.0 | 4.0 | 0.00 | 0.00 | 0.00 | 51 | 1018.3 |
| 20260902152312 | 96 | 187 | 1.0 | 4.0 | 0.00 | 0.00 | 0.00 | 52 | 1018.2 |
| 20260902151809 | 96 | 198 | 1.0 | 3.0 | 0.00 | 0.00 | 0.00 | 52 | 1018.3 |
| 20260902151304 | 95 | 137 | 1.0 | 4.0 | 0.00 | 0.00 | 0.00 | 54 | 1018.3 |
| 20260902150739 | 95 | 198 | 1.0 | 4.0 | 0.00 | 0.00 | 0.00 | 53 | 1018.3 |
| 20260902150659 | 95 | 202 | 1.0 | 4.0 | 0.00 | 0.00 | 0.00 | 55 | 1018.2 |
| 20260902145644 | 95 | 189 | 0.0 | 3.0 | 0.00 | 0.00 | 0.00 | 53 | 1018.3 |
| 20260902145121 | 94 | 193 | 0.0 | 3.0 | 0.00 | 0.00 | 0.00 | 55 | 1018.2 |
| 20260902144553 | 93 | 194 | 1.0 | 4.0 | 0.00 | 0.00 | 0.00 | 55 | 1018.3 |
| 20260902144051 | 93 | 134 | 1.0 | 4.0 | 0.00 | 0.00 | 0.00 | 55 | 1018.2 |
| 20260902143534 | 93 | 198 | 0.0 | 3.0 | 0.00 | 0.00 | 0.00 | 55 | 1018.2 |
| 20260902143034 | 92 | 188 | 0.0 | 3.0 | 0.00 | 0.00 | 0.00 | 58 | 1018.2 |
| 20260902142537 | 91 | 138 | 1.0 | 3.0 | 0.00 | 0.00 | 0.00 | 59 | 1018.2 |
| 20260902142024 | 91 | 136 | 1.0 | 3.0 | 0.00 | 0.00 | 0.00 | 58 | 1018.2 |
| 20260902141525 | 90 | 207 | 1.0 | 3.0 | 0.00 | 0.00 | 0.00 | 59 | 1018.3 |
| 20260902141021 | 91 | 148 | 1.0 | 3.0 | 0.00 | 0.00 | 0.00 | 58 | 1018.3 |
| 20260902140519 | 91 | 152 | 0.0 | 3.0 | 0.00 | 0.00 | 0.00 | 59 | 1018.3 |
| 20260902140008 | 91 | 152 | 0.0 | 1.0 | 0.00 | 0.00 | 0.00 | 60 | 1018.3 |
| 20260902135506 | 91 | 152 | 0.0 | 1.0 | 0.00 | 0.00 | 0.00 | 59 | 1018.4 |
| 20260902134939 | 90 | 188 | 0.0 | 1.0 | 0.00 | 0.00 | 0.00 | 62 | 1018.4 |
| 20260902134437 | 89 | 145 | 0.0 | 1.0 | 0.00 | 0.00 | 0.00 | 63 | 1018.3 |
| 20260902133920 | 89 | 146 | 0.0 | 1.0 | 0.00 | 0.00 | 0.00 | 63 | 1018.3 |
| 20260902133904 | 88 | 146 | 0.0 | 1.0 | 0.00 | 0.00 | 0.00 | 65 | 1018.2 |
| 20260902132857 | 87 | 198 | 0.0 | 1.0 | 0.00 | 0.00 | 0.00 | 67 | 1018.2 |
| 20260902132356 | 86 | 162 | 0.0 | 2.0 | 0.00 | 0.00 | 0.00 | 70 | 1018.2 |
| 20260902131856 | 85 | 135 | 0.0 | 2.0 | 0.00 | 0.00 | 0.00 | 70 | 1018.1 |
| 20260902131359 | 84 | 121 | 0.0 | 0.0 | 0.00 | 0.00 | 0.00 | 73 | 1018.1 |
| 20260902130831 | 83 | 121 | 0.0 | 1.0 | 0.00 | 0.00 | 0.00 | 75 | 1018.1 |
| 20260902130328 | 82 | 121 | 0.0 | 1.0 | 0.00 | 0.00 | 0.00 | 76 | 1018.0 |
| 20260902125800 | 80 | 136 | 0.0 | 1.0 | 0.00 | 0.00 | 0.00 | 78 | 1017.9 |
| 20260902125259 | 80 | 136 | 0.0 | 1.0 | 0.00 | 0.00 | 0.00 | 79 | 1018.0 |
| 20260902124755 | 78 | 136 | 0.0 | 0.0 | 0.00 | 0.00 | 0.00 | 81 | 1018.0 |
| 20260902124253 | 77 | 136 | 0.0 | 0.0 | 0.00 | 0.00 | 0.00 | 82 | 1018.0 |
| 20260902123739 | 76 | 136 | 0.0 | 0.0 | 0.00 | 0.00 | 0.00 | 84 | 1018.0 |
| 20260902123243 | 75 | 136 | 0.0 | 0.0 | 0.00 | 0.00 | 0.00 | 85 | 1018.0 |
| 20260902122715 | 74 | 136 | 0.0 | 0.0 | 0.00 | 0.00 | 0.00 | 86 | 1017.9 |
| 20260902122657 | 73 | 136 | 0.0 | 0.0 | 0.00 | 0.00 | 0.00 | 86 | 1017.8 |
| 20260902121703 | 73 | 136 | 0.0 | 0.0 | 0.00 | 0.00 | 0.00 | 85 | 1017.7 |
| 20260902121141 | 73 | 136 | 0.0 | 0.0 | 0.00 | 0.00 | 0.00 | 85 | 1017.7 |
| 20260902120643 | 73 | 136 | 0.0 | 0.0 | 0.00 | 0.00 | 0.00 | 85 | 1017.7 |
| 20260902120140 | 72 | 136 | 0.0 | 0.0 | 0.00 | 0.00 | 0.00 | 85 | 1017.6 |
| 20260902115643 | 72 | 136 | 0.0 | 0.0 | 0.00 | 0.00 | 0.00 | 85 | 1017.6 |
| 20260902115117 | 72 | 136 | 0.0 | 0.0 | 0.00 | 0.00 | 0.00 | 84 | 1017.5 |
| 20260902114548 | 73 | 136 | 0.0 | 0.0 | 0.00 | 0.00 | 0.00 | 83 | 1017.4 |
| 20260902114029 | 73 | 136 | 0.0 | 0.0 | 0.00 | 0.00 | 0.00 | 83 | 1017.5 |
| 20260902113527 | 73 | 136 | 0.0 | 0.0 | 0.00 | 0.00 | 0.00 | 83 | 1017.3 |
| 20260902112957 | 73 | 136 | 0.0 | 0.0 | 0.00 | 0.00 | 0.00 | 82 | 1017.3 |
| 20260902112454 | 74 | 136 | 0.0 | 0.0 | 0.00 | 0.00 | 0.00 | 82 | 1017.1 |
| 20260902111953 | 74 | 136 | 0.0 | 0.0 | 0.00 | 0.00 | 0.00 | 82 | 1017.3 |
| 20260902111433 | 74 | 136 | 0.0 | 0.0 | 0.00 | 0.00 | 0.00 | 82 | 1017.3 |
| 20260902111353 | 74 | 136 | 0.0 | 0.0 | 0.00 | 0.00 | 0.00 | 82 | 1017.0 |
| 20260902110859 | 74 | 136 | 0.0 | 0.0 | 0.00 | 0.00 | 0.00 | 82 | 1017.1 |
| 20260902110351 | 74 | 136 | 0.0 | 0.0 | 0.00 | 0.00 | 0.00 | 81 | 1017.0 |
| 20260902105405 | 74 | 136 | 0.0 | 0.0 | 0.00 | 0.00 | 0.00 | 81 | 1017.0 |
| 20260902104841 | 75 | 136 | 0.0 | 0.0 | 0.00 | 0.00 | 0.00 | 81 | 1016.8 |
| 20260902104328 | 75 | 136 | 0.0 | 0.0 | 0.00 | 0.00 | 0.00 | 80 | 1016.9 |
| 20260902103826 | 75 | 136 | 0.0 | 0.0 | 0.00 | 0.00 | 0.00 | 80 | 1016.9 |
| 20260902103306 | 75 | 136 | 0.0 | 0.0 | 0.00 | 0.00 | 0.00 | 80 | 1016.8 |
| 20260902102804 | 75 | 136 | 0.0 | 0.0 | 0.00 | 0.00 | 0.00 | 80 | 1016.8 |
| 20260902102307 | 76 | 136 | 0.0 | 0.0 | 0.00 | 0.00 | 0.00 | 80 | 1016.9 |
| 20260902101803 | 76 | 136 | 0.0 | 0.0 | 0.00 | 0.00 | 0.00 | 79 | 1016.8 |
| 20260902101724 | 76 | 136 | 0.0 | 0.0 | 0.00 | 0.00 | 0.00 | 79 | 1016.7 |
| 20260902100711 | 76 | 136 | 0.0 | 0.0 | 0.00 | 0.00 | 0.00 | 79 | 1016.8 |
| 20260902100633 | 76 | 136 | 0.0 | 0.0 | 0.00 | 0.00 | 0.00 | 79 | 1016.7 |
| 20260902095614 | 76 | 136 | 0.0 | 0.0 | 0.00 | 0.00 | 0.00 | 79 | 1016.9 |
| 20260902095111 | 76 | 136 | 0.0 | 0.0 | 0.00 | 0.00 | 0.00 | 79 | 1016.8 |
| 20260902095036 | 76 | 136 | 0.0 | 1.0 | 0.00 | 0.00 | 0.00 | 79 | 1016.8 |
| 20260902094018 | 76 | 136 | 0.0 | 1.0 | 0.00 | 0.00 | 0.00 | 78 | 1016.8 |
| 20260902093453 | 76 | 136 | 0.0 | 1.0 | 0.00 | 0.00 | 0.00 | 78 | 1016.8 |
| 20260902092949 | 76 | 136 | 0.0 | 1.0 | 0.00 | 0.00 | 0.00 | 78 | 1016.7 |
| 20260902092445 | 76 | 136 | 0.0 | 0.0 | 0.00 | 0.00 | 0.00 | 78 | 1016.8 |
| 20260902091942 | 76 | 136 | 0.0 | 0.0 | 0.00 | 0.00 | 0.00 | 78 | 1016.7 |
| 20260902091441 | 76 | 136 | 0.0 | 0.0 | 0.00 | 0.00 | 0.00 | 78 | 1016.7 |
| 20260902090915 | 76 | 136 | 0.0 | 0.0 | 0.00 | 0.00 | 0.00 | 77 | 1016.8 |
| 20260902090837 | 77 | 136 | 0.0 | 0.0 | 0.00 | 0.00 | 0.00 | 77 | 1016.7 |
| 20260902090322 | 77 | 136 | 0.0 | 0.0 | 0.00 | 0.00 | 0.00 | 78 | 1016.7 |
| 20260902085344 | 77 | 136 | 0.0 | 0.0 | 0.00 | 0.00 | 0.00 | 77 | 1016.7 |
| 20260902084814 | 77 | 136 | 0.0 | 0.0 | 0.00 | 0.00 | 0.00 | 77 | 1016.7 |
| 20260902084312 | 77 | 136 | 0.0 | 1.0 | 0.00 | 0.00 | 0.00 | 77 | 1016.7 |
| 20260902083744 | 77 | 136 | 0.0 | 1.0 | 0.00 | 0.00 | 0.00 | 77 | 1016.7 |
| 20260902083242 | 77 | 146 | 0.0 | 0.0 | 0.00 | 0.00 | 0.00 | 77 | 1016.6 |
| 20260902082715 | 77 | 146 | 0.0 | 0.0 | 0.00 | 0.00 | 0.00 | 77 | 1016.7 |
| 20260902082148 | 77 | 146 | 0.0 | 0.0 | 0.00 | 0.00 | 0.00 | 77 | 1016.6 |
| 20260902082137 | 77 | 146 | 0.0 | 0.0 | 0.00 | 0.00 | 0.00 | 76 | 1016.8 |
| 20260902081143 | 78 | 145 | 0.0 | 0.0 | 0.00 | 0.00 | 0.00 | 76 | 1016.7 |
| 20260902080621 | 78 | 146 | 0.0 | 0.0 | 0.00 | 0.00 | 0.00 | 75 | 1016.7 |
| 20260902080118 | 78 | 146 | 0.0 | 0.0 | 0.00 | 0.00 | 0.00 | 75 | 1016.8 |
| 20260902075619 | 78 | 145 | 0.0 | 0.0 | 0.00 | 0.00 | 0.00 | 75 | 1016.6 |
| 20260902075115 | 78 | 145 | 0.0 | 0.0 | 0.00 | 0.00 | 0.00 | 75 | 1016.8 |
| 20260902074616 | 78 | 146 | 0.0 | 1.0 | 0.00 | 0.00 | 0.00 | 75 | 1016.7 |
| 20260902074114 | 78 | 145 | 0.0 | 1.0 | 0.00 | 0.00 | 0.00 | 74 | 1016.7 |
| 20260902074104 | 78 | 145 | 0.0 | 1.0 | 0.00 | 0.00 | 0.00 | 74 | 1016.7 |
| 20260902073048 | 78 | 145 | 0.0 | 1.0 | 0.00 | 0.00 | 0.00 | 74 | 1016.7 |
| 20260902072545 | 78 | 148 | 0.0 | 0.0 | 0.00 | 0.00 | 0.00 | 74 | 1016.8 |
| 20260902072503 | 78 | 148 | 0.0 | 0.0 | 0.00 | 0.00 | 0.00 | 74 | 1016.8 |
| 20260902071450 | 78 | 148 | 0.0 | 0.0 | 0.00 | 0.00 | 0.00 | 74 | 1016.8 |
| 20260902070943 | 78 | 148 | 0.0 | 0.0 | 0.00 | 0.00 | 0.00 | 74 | 1016.7 |
| 20260902070416 | 78 | 148 | 0.0 | 0.0 | 0.00 | 0.00 | 0.00 | 74 | 1016.8 |
| 20260902065851 | 78 | 148 | 0.0 | 0.0 | 0.00 | 0.00 | 0.00 | 74 | 1016.8 |
| 20260902065811 | 78 | 148 | 0.0 | 0.0 | 0.00 | 0.00 | 0.00 | 73 | 1016.9 |
| 20260902064807 | 79 | 148 | 0.0 | 0.0 | 0.00 | 0.00 | 0.00 | 73 | 1016.8 |
| 20260902064304 | 79 | 148 | 0.0 | 0.0 | 0.00 | 0.00 | 0.00 | 73 | 1016.8 |
| 20260902063804 | 79 | 148 | 0.0 | 0.0 | 0.00 | 0.00 | 0.00 | 73 | 1016.8 |
| 20260902063717 | 79 | 148 | 0.0 | 0.0 | 0.00 | 0.00 | 0.00 | 73 | 1016.7 |
| 20260902063157 | 79 | 148 | 0.0 | 0.0 | 0.00 | 0.00 | 0.00 | 73 | 1016.7 |
| 20260902062211 | 79 | 148 | 0.0 | 0.0 | 0.00 | 0.00 | 0.00 | 72 | 1016.7 |
| 20260902061929 | 79 | 148 | 0.0 | 0.0 | 0.00 | 0.00 | 0.00 | 72 | 1016.8 |
| 20260902061653 | 79 | 148 | 0.0 | 0.0 | 0.00 | 0.00 | 0.00 | 72 | 1016.8 |
| 20260902060650 | 79 | 148 | 0.0 | 0.0 | 0.00 | 0.00 | 0.00 | 71 | 1016.8 |
| 20260902060140 | 80 | 148 | 0.0 | 0.0 | 0.00 | 0.00 | 0.00 | 70 | 1016.8 |
| 20260902055640 | 80 | 150 | 0.0 | 0.0 | 0.00 | 0.00 | 0.00 | 70 | 1016.8 |
| 20260902055111 | 80 | 151 | 0.0 | 0.0 | 0.00 | 0.00 | 0.00 | 70 | 1016.7 |
| 20260902054608 | 80 | 150 | 0.0 | 0.0 | 0.00 | 0.00 | 0.00 | 70 | 1016.8 |
| 20260902054104 | 80 | 150 | 0.0 | 0.0 | 0.00 | 0.00 | 0.00 | 69 | 1016.8 |
| 20260902053601 | 81 | 150 | 0.0 | 0.0 | 0.00 | 0.00 | 0.00 | 68 | 1016.7 |
| 20260902053053 | 81 | 150 | 0.0 | 1.0 | 0.00 | 0.00 | 0.00 | 68 | 1016.7 |
| 20260902052526 | 81 | 150 | 0.0 | 1.0 | 0.00 | 0.00 | 0.00 | 67 | 1016.7 |
| 20260902052013 | 82 | 151 | 0.0 | 1.0 | 0.00 | 0.00 | 0.00 | 67 | 1016.7 |
| 20260902051517 | 82 | 150 | 0.0 | 1.0 | 0.00 | 0.00 | 0.00 | 67 | 1016.7 |
| 20260902050948 | 82 | 146 | 0.0 | 1.0 | 0.00 | 0.00 | 0.00 | 67 | 1016.6 |
| 20260902050933 | 82 | 155 | 0.0 | 1.0 | 0.00 | 0.00 | 0.00 | 67 | 1016.6 |
| 20260902045915 | 82 | 136 | 0.0 | 1.0 | 0.00 | 0.00 | 0.00 | 66 | 1016.6 |
| 20260902045413 | 82 | 136 | 0.0 | 1.0 | 0.00 | 0.00 | 0.00 | 66 | 1016.5 |
| 20260902044914 | 82 | 136 | 0.0 | 1.0 | 0.00 | 0.00 | 0.00 | 66 | 1016.6 |
| 20260902044345 | 82 | 136 | 0.0 | 1.0 | 0.00 | 0.00 | 0.00 | 66 | 1016.6 |
| 20260902043839 | 82 | 144 | 0.0 | 1.0 | 0.00 | 0.00 | 0.00 | 66 | 1016.4 |
| 20260902043756 | 82 | 144 | 0.0 | 1.0 | 0.00 | 0.00 | 0.00 | 65 | 1016.5 |
| 20260902042746 | 83 | 144 | 0.0 | 1.0 | 0.00 | 0.00 | 0.00 | 65 | 1016.4 |
| 20260902042219 | 83 | 137 | 0.0 | 1.0 | 0.00 | 0.00 | 0.00 | 65 | 1016.4 |
| 20260902041650 | 83 | 135 | 0.0 | 1.0 | 0.00 | 0.00 | 0.00 | 64 | 1016.4 |
| 20260902041621 | 83 | 134 | 0.0 | 1.0 | 0.00 | 0.00 | 0.00 | 64 | 1016.4 |
| 20260902040629 | 83 | 134 | 0.0 | 1.0 | 0.00 | 0.00 | 0.00 | 63 | 1016.3 |
| 20260902040609 | 84 | 134 | 0.0 | 1.0 | 0.00 | 0.00 | 0.00 | 63 | 1016.3 |
| 20260902035625 | 84 | 140 | 0.0 | 1.0 | 0.00 | 0.00 | 0.00 | 62 | 1016.3 |
| 20260902035059 | 84 | 136 | 0.0 | 1.0 | 0.00 | 0.00 | 0.00 | 62 | 1016.3 |
| 20260902034541 | 84 | 129 | 0.0 | 1.0 | 0.00 | 0.00 | 0.00 | 61 | 1016.2 |
| 20260902034010 | 85 | 129 | 0.0 | 2.0 | 0.00 | 0.00 | 0.00 | 61 | 1016.2 |
| 20260902033952 | 85 | 134 | 0.0 | 3.0 | 0.00 | 0.00 | 0.00 | 61 | 1016.2 |
| 20260902032943 | 85 | 127 | 0.0 | 2.0 | 0.00 | 0.00 | 0.00 | 61 | 1016.1 |
| 20260902032415 | 85 | 138 | 0.0 | 2.0 | 0.00 | 0.00 | 0.00 | 60 | 1016.1 |
| 20260902031911 | 85 | 123 | 0.0 | 2.0 | 0.00 | 0.00 | 0.00 | 61 | 1016.0 |
| 20260902031857 | 85 | 140 | 0.0 | 3.0 | 0.00 | 0.00 | 0.00 | 60 | 1016.0 |
| 20260902030844 | 85 | 133 | 0.0 | 3.0 | 0.00 | 0.00 | 0.00 | 60 | 1015.9 |
| 20260902030317 | 85 | 133 | 0.0 | 2.0 | 0.00 | 0.00 | 0.00 | 60 | 1015.9 |
| 20260902030235 | 85 | 127 | 0.0 | 1.0 | 0.00 | 0.00 | 0.00 | 60 | 1015.9 |
| 20260902025224 | 85 | 132 | 0.0 | 1.0 | 0.00 | 0.00 | 0.00 | 59 | 1015.7 |
| 20260902024656 | 85 | 132 | 0.0 | 2.0 | 0.00 | 0.00 | 0.00 | 58 | 1015.7 |
| 20260902024128 | 85 | 131 | 0.0 | 2.0 | 0.00 | 0.00 | 0.00 | 58 | 1015.6 |
| 20260902023603 | 85 | 118 | 0.0 | 2.0 | 0.00 | 0.00 | 0.00 | 58 | 1015.5 |
| 20260902023035 | 85 | 137 | 0.0 | 2.0 | 0.00 | 0.00 | 0.00 | 57 | 1015.5 |
| 20260902022531 | 85 | 139 | 0.0 | 2.0 | 0.00 | 0.00 | 0.00 | 57 | 1015.5 |
| 20260902022014 | 85 | 62 | 0.0 | 1.0 | 0.00 | 0.00 | 0.00 | 57 | 1015.3 |
| 20260902021447 | 85 | 138 | 0.0 | 1.0 | 0.00 | 0.00 | 0.00 | 57 | 1015.4 |
| 20260902020948 | 85 | 276 | 0.0 | 2.0 | 0.00 | 0.00 | 0.00 | 56 | 1015.2 |
| 20260902020427 | 85 | 278 | 0.0 | 2.0 | 0.00 | 0.00 | 0.00 | 56 | 1015.1 |
| 20260902015930 | 84 | 263 | 0.0 | 1.0 | 0.00 | 0.00 | 0.00 | 57 | 1015.0 |
| 20260902015403 | 84 | 137 | 0.0 | 1.0 | 0.00 | 0.00 | 0.00 | 57 | 1015.1 |
| 20260902015353 | 84 | 139 | 0.0 | 0.0 | 0.00 | 0.00 | 0.00 | 56 | 1014.9 |
| 20260902014832 | 85 | 139 | 0.0 | 0.0 | 0.00 | 0.00 | 0.00 | 55 | 1015.0 |
| 20260902013843 | 85 | 139 | 0.0 | 0.0 | 0.00 | 0.00 | 0.00 | 55 | 1015.0 |
| 20260902013342 | 85 | 139 | 0.0 | 0.0 | 0.00 | 0.00 | 0.00 | 54 | 1014.9 |
| 20260902012845 | 86 | 139 | 0.0 | 0.0 | 0.00 | 0.00 | 0.00 | 54 | 1014.8 |
| 20260902012343 | 86 | 139 | 0.0 | 0.0 | 0.00 | 0.00 | 0.00 | 52 | 1014.7 |
| 20260902011839 | 87 | 139 | 0.0 | 0.0 | 0.00 | 0.00 | 0.00 | 51 | 1014.8 |
| 20260902011757 | 88 | 139 | 0.0 | 0.0 | 0.00 | 0.00 | 0.00 | 51 | 1014.7 |
| 20260902010808 | 88 | 139 | 0.0 | 0.0 | 0.00 | 0.00 | 0.00 | 50 | 1014.7 |
| 20260902010308 | 89 | 139 | 0.0 | 0.0 | 0.00 | 0.00 | 0.00 | 50 | 1014.7 |
| 20260902005802 | 90 | 139 | 0.0 | 0.0 | 0.00 | 0.00 | 0.00 | 47 | 1014.8 |
| 20260902005730 | 91 | 139 | 0.0 | 0.0 | 0.00 | 0.00 | 0.00 | 46 | 1014.8 |
| 20260902004735 | 92 | 139 | 0.0 | 1.0 | 0.00 | 0.00 | 0.00 | 46 | 1014.8 |
| 20260902004232 | 93 | 139 | 0.0 | 1.0 | 0.00 | 0.00 | 0.00 | 45 | 1014.7 |
| 20260902003735 | 94 | 139 | 0.0 | 1.0 | 0.00 | 0.00 | 0.00 | 43 | 1014.8 |
| 20260902003157 | 95 | 141 | 0.0 | 1.0 | 0.00 | 0.00 | 0.00 | 41 | 1014.9 |
| 20260902003136 | 96 | 120 | 0.0 | 1.0 | 0.00 | 0.00 | 0.00 | 40 | 1014.8 |
| 20260902002130 | 97 | 120 | 0.0 | 2.0 | 0.00 | 0.00 | 0.00 | 40 | 1014.9 |
| 20260902001612 | 97 | 120 | 0.0 | 2.0 | 0.00 | 0.00 | 0.00 | 40 | 1014.9 |
| 20260902001114 | 98 | 127 | 0.0 | 2.0 | 0.00 | 0.00 | 0.00 | 39 | 1014.9 |
| 20260902000545 | 98 | 127 | 0.0 | 2.0 | 0.00 | 0.00 | 0.00 | 39 | 1014.9 |
| 20260902000040 | 98 | 137 | 0.0 | 3.0 | 0.00 | 0.00 | 0.00 | 39 | 1014.9 |
| 20260901235516 | 98 | 131 | 0.0 | 3.0 | 0.00 | 0.00 | 0.00 | 38 | 1014.9 |